Tracking 31027 objects as of 19-Jul-2025
HD Live streaming from Space Station
objects crossing your sky now

BREEZE-M DEB (TANK)

Track BREEZE-M DEB (TANK) now!
10-day predictions


NORAD ID: 40386
Int'l Code: 2015-005C
Perigee: 399.4 km
Apogee: 14,544.4 km
Inclination: 50.7 °
Period: 270.1 minutes
Semi major axis: 13842 km
RCS: Unknown
Launch date: February 1, 2015
Source: Commonwealth of Independent States (former USSR) (CIS)
Launch site: TYURATAM MISSILE AND SPACE COMPLEX (TTMTR)

Note: This is SATELLITE DEBRIS
Your satellite tracking list
DELTA 1 DEB
Track 1 satellite(s)




NASA's NSSDC Master Catalog

Two Line Element Set (TLE):
1 40386U 15005C   25199.28004761  .00000375  00000-0  30148-3 0  9990
2 40386  50.7404 303.1287 5109133 312.8376  14.2508  5.33042618197929
Source of the keplerian elements: AFSPC